Location: Cary
(35.7910°N, 78.7810°W)
Time: 08:26:53
(UTC-04:00)

Envisat - Visible Passes

Search period start: 21 June 2018 00:00
Search period end: 01 July 2018 00:00
Orbit: 764 x 766 km, 98.2° (Epoch: 21 June)

Date Brightness Start Highest point End Pass type
(mag) Time Alt. Az. Time Alt. Az. Time Alt. Az.
22 Jun 5.5 21:46:41 10° SW 21:49:55 17° W 21:53:08 10° NW visible
23 Jun 4.4 21:08:14 10° SSW 21:12:57 39° W 21:17:42 10° NNW visible
25 Jun 5.3 21:34:49 10° SW 21:38:39 22° W 21:42:32 10° NW visible
27 Jun 5.8 22:02:52 10° WSW 22:04:27 11° W 22:06:04 10° WNW visible
28 Jun 5.0 21:23:08 10° SSW 21:27:25 28° W 21:31:45 10° NW visible
30 Jun 5.6 21:50:19 10° SW 21:53:12 15° W 21:56:05 10° WNW visible
